Regional Weather Roundup
Issued by NWS

Home | Current Version | Previous Version | Graphics & Text | Print | Product List | Glossary On
Versions: 1 2 3 4 5 6 7 8 9 10 11 12 13 14 15 16 17 18 19 20 21 22 23 24 25 26 27 28 29 30 31 32 33 34 35 36 37 38 39 40 41 42 43 44 45 46 47 48 49 50
000
ASUS43 KFSD 270502
RWRSD

WEATHER ROUNDUP FOR SOUTH DAKOTA
NATIONAL WEATHER SERVICE SIOUX FALLS SD
1200 AM CDT FRI APR 27 2018

NOTE: "FAIR" INDICATES FEW OR NO CLOUDS BELOW 12,000 FEET WITH NO
SIGNIFICANT WEATHER AND/OR OBSTRUCTIONS TO VISIBILITY.


SDZ001>005-009-010-012>017-270600-
NORTHWEST AND NORTH CENTRAL SOUTH DAKOTA

CITY           SKY/WX    TMP DP  RH WIND       PRES   REMARKS
BUFFALO          N/A     46  32  58 W8        30.01F
FAITH            N/A     48  35  60 W9        30.05F
MOBRIDGE       CLEAR     46  33  60 NW7       29.95F
$$

SDZ012>016-024>037-041>051-057-063-072>074-270600-
SOUTHWEST AND SOUTH CENTRAL SOUTH DAKOTA

CITY           SKY/WX    TMP DP  RH WIND       PRES   REMARKS
RAPID CTY ARPT CLEAR     46  30  53 W7        30.10F
PIERRE         CLEAR     47  32  56 W9        30.01F
CUSTER         CLEAR     43  24  47 W8        30.16F
ELLSWORTH AFB  CLEAR     49  31  49 CALM      30.10F
PHILIP         CLEAR     46  33  60 W9        30.06F
PINE RIDGE     CLEAR     39  34  82 CALM      30.13S
SPEARFISH      FAIR      48  30  49 W9        30.12S
WINNER         FAIR      47  30  51 SW7       30.06F
$$

SDZ004>011-016>023-039-040-270600-
NORTHEAST SOUTH DAKOTA

CITY           SKY/WX    TMP DP  RH WIND       PRES   REMARKS
ABERDEEN       CLEAR     36  28  73 SW10      29.95F
WATERTOWN      PTCLDY    38  31  76 S7        29.97F
BROOKINGS      CLEAR     44  34  67 SE8       30.01F
SISSETON         N/A     44  33  65 S12       29.89F
$$

SDZ017-020-022-023-036>040-048>070-270600-
SOUTHEAST SOUTH DAKOTA

CITY           SKY/WX    TMP DP  RH WIND       PRES   REMARKS
SIOUX FALLS    CLEAR     41  31  67 CALM      30.03S
HURON          CLEAR     43  33  68 SW5       29.99F
CHAMBERLAIN    CLEAR     46  32  59 SW5       30.03F
MITCHELL       CLEAR     47  34  60 SW7       30.02F
YANKTON        CLEAR     42  33  70 SW6       30.04F
$$

ABBREVIATIONS USED IN REMARKS
   TC - TEMPERATURE IN CELSIUS
  WCI - WIND CHILL INDEX
   HX - HEAT INDEX
  VSB - VISIBILITY




USA.gov is the U.S. government's official web portal to all federal, state and local government web resources and services.